Lid_Strength_Index
-1 -1 -1 -1 -1 -1 0 3 9 1 0 8 8 11 8 6 6 5 9 9 11 11 10 11 10 9 7 5 5 8 6 8 11 9 6 6 7 8 8 11 13 10 11 11
-1 -1 -1 -1 -1 -0 1 6 6 0 2 12 11 8 8 7 7 7 10 10 10 10 11 12 9 8 5 5 6 7 6 9 12 11 8 7 8 7 7 8 9 12 13 11
-1 -1 -1 -1 -1 -1 1 5 10 5 5 5 8 9 9 9 6 7 8 9 10 10 12 10 11 8 6 5 5 5 6 8 10 13 10 8 10 8 8 8 12 11 10 9
-1 -1 -1 -1 -1 -1 1 4 7 5 9 8 8 8 8 9 10 6 6 9 10 11 12 11 11 9 10 7 5 6 7 10 9 8 8 8 8 8 8 9 9 11 9 9
-1 -1 -1 -1 -1 -1 2 7 7 5 7 6 8 8 9 8 8 7 8 9 9 10 12 11 12 11 10 10 8 7 7 10 9 9 8 8 9 8 8 8 8 8 8 9
-1 -1 -1 -1 -1 -1 3 2 2 5 7 7 9 9 8 8 7 6 6 7 9 11 11 9 9 9 9 8 9 10 8 9 10 12 8 9 11 9 8 8 7 7 9 7
-1 -1 -1 -1 -1 -1 1 2 3 7 9 8 10 8 7 8 7 8 6 5 8 8 6 8 8 9 9 8 7 7 10 10 9 12 10 15 8 6 6 7 7 6 6 6
-1 -1 -1 -1 -1 -1 1 1 3 7 10 7 7 7 7 6 6 6 6 5 4 4 7 11 12 11 10 9 7 7 7 9 11 13 13 10 8 7 7 8 8 6 6 6
-1 -1 -1 -1 -1 -1 0 0 1 4 8 7 6 7 6 8 8 7 6 4 3 4 7 11 15 16 11 11 9 6 7 7 10 12 14 15 9 6 5 5 10 5 5 5
-1 -1 -1 -1 -1 -1 -0 1 -1 3 7 5 5 8 8 6 7 9 7 7 5 5 9 13 14 15 10 14 12 11 10 10 12 12 13 10 6 5 5 11 9 5 5 5
-1 -1 -1 -1 -1 -1 -0 1 -1 3 6 5 3 3 6 6 7 11 8 8 7 7 10 11 12 14 12 13 11 12 11 12 12 11 13 13 5 6 8 6 4 4 5 4
-1 -1 -1 -1 -1 -1 -1 2 -1 -0 4 5 2 2 2 3 4 6 6 8 8 8 9 8 9 11 11 13 15 8 13 10 11 10 10 5 5 5 5 4 5 4 4 4
-0 -1 -1 -1 -1 -1 -1 1 0 1 4 4 4 5 2 1 1 1 7 6 5 6 5 8 9 12 9 14 12 12 8 7 10 10 7 6 5 4 4 3 4 3 3 3
-0 -1 -1 -1 -1 -1 -1 1 -0 1 4 8 5 1 3 0 1 1 2 3 3 4 4 7 9 11 7 11 10 11 9 8 9 9 7 6 5 5 4 4 3 3 3 3
-1 -1 -1 -0 -1 -1 -1 -0 -1 -0 4 8 6 2 1 1 1 2 2 3 4 5 6 8 9 7 8 8 8 11 9 9 11 10 7 8 6 5 5 4 4 4 3 3
-0 -1 -0 -0 -0 -1 1 4 -0 -1 -0 6 9 3 3 2 2 2 3 3 4 4 6 6 5 5 8 10 10 8 8 7 7 8 6 6 6 4 4 5 4 4 5 3
-0 -0 -0 -0 -0 -0 3 4 1 1 -0 6 8 7 4 2 3 3 4 3 4 5 6 6 6 6 6 8 11 7 7 6 7 7 8 7 6 5 4 4 3 4 4 4
-0 -0 -0 -0 -0 0 2 -1 -1 -0 2 4 9 8 6 3 6 7 4 5 5 5 6 6 6 6 6 10 7 7 7 7 7 7 7 6 5 4 4 3 3 4 5 4
0 -0 -1 -0 1 3 1 -0 -1 -1 3 8 8 10 12 4 6 5 5 5 9 5 7 7 6 8 10 7 6 7 7 7 8 7 7 7 7 5 5 4 4 4 4 3
0 0 3 5 2 -0 -1 2 4 4 4 4 7 5 10 6 7 8 8 7 9 10 7 5 8 9 6 5 4 4 4 5 6 8 7 7 6 5 5 5 5 4 4 4
0 3 4 1 -1 1 3 6 7 6 8 6 6 6 9 5 10 10 8 10 9 12 9 9 9 9 6 4 4 4 4 4 5 5 5 5 5 5 5 5 5 5 4 3
2 2 0 1 3 4 7 8 6 8 9 6 7 7 6 6 5 9 9 11 10 13 8 11 12 9 7 6 5 4 3 3 4 5 5 5 5 5 5 5 4 4 3 3
0 3 5 5 5 11 11 12 11 11 7 6 7 8 7 6 6 10 10 12 13 9 12 12 11 8 7 6 5 4 3 3 3 4 4 4 4 4 4 4 3 3 3 2
4 6 11 8 10 10 10 10 8 7 7 6 6 8 8 7 9 9 12 11 10 14 15 14 10 10 8 6 5 5 5 5 4 3 3 4 4 4 3 3 2 3 3 3
5 5 11 9 6 6 5 4 5 4 4 5 6 6 7 8 10 10 11 12 14 13 14 11 11 10 9 8 7 6 6 5 5 4 4 4 3 3 3 2 2 2 2 3
4 5 8 6 6 6 5 5 5 4 4 4 5 8 9 10 11 12 13 14 14 13 12 10 7 9 8 8 8 7 6 6 5 4 4 4 4 4 3 3 3 3 2 3
5 6 4 5 5 6 5 4 4 3 5 7 7 10 11 8 11 13 12 12 12 10 8 6 5 6 6 6 6 6 6 7 5 5 4 4 3 4 4 5 4 3 3 3